Location: Unspecified
(49.9820°N, 20.4363°E)
Time: 18:49:05
(UTC+02:00)

A-11 Canister half - Pass Details

Date: 23 May 2026
Orbit: 1515 x 1685 km, 47.2° (Epoch: 6 June)

Event Time Altitude Azimuth Distance (km) Brightness Sun altitude
Rises 22:27:45 0° 262° (W) 4,759 11.9 -13.9°
Reaches altitude 10° 22:30:52 10° 261° (W) 3,754 11.3 -14.2°
Maximum altitude 22:40:17 76° 178° (S) 1,570 8.9 -14.9°
Drops below altitude 10° 22:49:31 10° 95° (E) 3,676 10.7 -15.5°
Sets 22:52:32 0° 94° (E) 4,656 11.3 -15.8°
